Location: Bühlhof
(48.7849°N, 8.6361°E)
Time: 00:47:16
(UTC+00:00)

USA 305 - Pass Details

Date: 19 January 2026
Orbit: 491 x 494 km, 54.4° (Epoch: 11 March)

Event Time Altitude Azimuth Distance (km) Brightness Sun altitude
Rises 18:31:28 0° 228° (SW) 2,432 6.9 -24.0°
Reaches altitude 10° 18:33:32 10° 224° (SW) 1,642 5.8 -24.4°
Enters shadow 18:35:59 36° 209° (SSW) 804 3.8 -24.8°
